JLY7659 SBEG-MPTO

Flight info

Callsign JLY7659
Flight time N/A
Altitude 34000
Route SINUN UP527 DADKA UM549 SIGUN ISOKO2C
Aircraft B738/M-SDE2E3FGHIRWXY/LB1

Departure

Time 2026-05-06 19:49
Airport Eduardo Gomes International Airport (SBEG)

Arrival

Time N/A
Airport Tocumen International Airport (MPTO)
Time Latitude Longitude Altitude Speed Heading
2026-05-06 19:29 -3.03282 -60.04594 298 ft 0 kts 330°
2026-05-06 19:36 -3.03298 -60.04587 302 ft 4 kts 13°
2026-05-06 19:36 -3.03309 -60.04603 299 ft 0 kts 86°
2026-05-06 19:37 -3.03309 -60.04616 298 ft 1 kts 88°
2026-05-06 19:43 -3.03313 -60.04588 298 ft 8 kts 108°
2026-05-06 19:43 -3.03345 -60.04514 299 ft 9 kts 101°
2026-05-06 19:44 -3.03341 -60.04476 298 ft 8 kts 80°
2026-05-06 19:44 -3.03333 -60.04419 300 ft 8 kts 91°
2026-05-06 19:44 -3.03368 -60.04381 299 ft 8 kts 158°
2026-05-06 19:44 -3.03419 -60.04363 299 ft 8 kts 161°
2026-05-06 19:45 -3.03482 -60.04336 301 ft 7 kts 150°
2026-05-06 19:45 -3.03510 -60.04317 301 ft 7 kts 142°
2026-05-06 19:45 -3.03542 -60.04280 299 ft 7 kts 125°
2026-05-06 19:45 -3.03570 -60.04231 301 ft 9 kts 117°
2026-05-06 19:46 -3.03596 -60.04162 301 ft 12 kts 106°
2026-05-06 19:46 -3.03621 -60.04076 300 ft 14 kts 106°
2026-05-06 19:46 -3.03647 -60.03977 300 ft 15 kts 105°
2026-05-06 19:46 -3.03674 -60.03881 301 ft 14 kts 106°
2026-05-06 19:47 -3.03707 -60.03800 301 ft 8 kts 129°
2026-05-06 19:47 -3.03751 -60.03768 301 ft 8 kts 157°
2026-05-06 19:47 -3.03803 -60.03769 301 ft 8 kts 197°
2026-05-06 19:47 -3.03849 -60.03791 301 ft 7 kts 225°
2026-05-06 19:48 -3.03861 -60.03902 300 ft 40 kts 270°
2026-05-06 19:48 -3.03860 -60.04423 300 ft 108 kts 270°
2026-05-06 19:48 -3.03867 -60.05382 303 ft 164 kts 269°
2026-05-06 19:48 -3.03826 -60.06565 844 ft 175 kts 271°
2026-05-06 19:49 -3.03791 -60.07829 1435 ft 189 kts 274°
2026-05-06 19:49 -3.03763 -60.09194 2062 ft 201 kts 272°
2026-05-06 19:49 -3.03738 -60.10680 2276 ft 225 kts 273°
2026-05-06 19:49 -3.03708 -60.12316 2511 ft 242 kts 273°
2026-05-06 19:50 -3.03676 -60.14034 2800 ft 261 kts 272°
2026-05-06 19:50 -3.03639 -60.15907 3227 ft 275 kts 272°
2026-05-06 19:50 -3.03601 -60.17836 4103 ft 279 kts 272°
2026-05-06 19:50 -3.03561 -60.19811 4900 ft 288 kts 272°
2026-05-06 19:51 -3.03520 -60.21820 5680 ft 291 kts 272°
2026-05-06 19:51 -3.03476 -60.23859 6352 ft 296 kts 271°
2026-05-06 19:51 -3.03433 -60.25921 7103 ft 297 kts 271°
2026-05-06 19:51 -3.03388 -60.28005 7760 ft 301 kts 271°
2026-05-06 19:52 -3.03343 -60.30106 8486 ft 304 kts 271°
2026-05-06 19:52 -3.03297 -60.32227 9205 ft 306 kts 271°
2026-05-06 19:52 -3.03135 -60.34355 9890 ft 309 kts 285°
2026-05-06 19:52 -3.02286 -60.36349 10357 ft 319 kts 298°
2026-05-06 19:53 -3.01226 -60.38394 10494 ft 342 kts 299°
2026-05-06 19:53 -3.00082 -60.40556 10727 ft 358 kts 299°
2026-05-06 19:53 -2.98904 -60.42780 11209 ft 365 kts 298°
2026-05-06 19:53 -2.97718 -60.45035 11832 ft 367 kts 298°
2026-05-06 19:54 -2.96533 -60.47300 12473 ft 369 kts 298°
2026-05-06 19:54 -2.95340 -60.49590 13045 ft 373 kts 298°
2026-05-06 19:54 -2.94139 -60.51902 13606 ft 377 kts 298°
2026-05-06 19:54 -2.92929 -60.54236 14147 ft 379 kts 298°
2026-05-06 19:55 -2.91709 -60.56590 14657 ft 382 kts 298°
2026-05-06 19:55 -2.90483 -60.58958 15150 ft 386 kts 298°
2026-05-06 19:55 -2.89244 -60.61352 15653 ft 389 kts 298°
2026-05-06 19:55 -2.87996 -60.63764 16151 ft 392 kts 298°
2026-05-06 19:56 -2.86738 -60.66193 16634 ft 395 kts 298°
2026-05-06 19:56 -2.85472 -60.68639 17113 ft 398 kts 298°
2026-05-06 19:56 -2.84191 -60.71113 17586 ft 401 kts 298°
2026-05-06 19:56 -2.82905 -60.73596 18052 ft 404 kts 298°
2026-05-06 19:57 -2.81606 -60.76105 18471 ft 407 kts 298°
2026-05-06 19:57 -2.80297 -60.78633 18850 ft 411 kts 298°
2026-05-06 19:57 -2.78981 -60.81175 19250 ft 413 kts 298°
2026-05-06 19:57 -2.77654 -60.83736 19643 ft 416 kts 297°
2026-05-06 19:58 -2.76322 -60.86307 20023 ft 418 kts 297°
2026-05-06 19:58 -2.74980 -60.88900 20402 ft 421 kts 297°
2026-05-06 19:58 -2.73628 -60.91508 20769 ft 424 kts 297°
2026-05-06 19:58 -2.72269 -60.94133 21145 ft 426 kts 297°
2026-05-06 19:59 -2.70902 -60.96772 21509 ft 429 kts 297°
2026-05-06 19:59 -2.69525 -60.99428 21860 ft 432 kts 297°
2026-05-06 19:59 -2.68140 -61.02102 22218 ft 434 kts 297°
2026-05-06 19:59 -2.66749 -61.04786 22559 ft 436 kts 297°
2026-05-06 20:00 -2.65348 -61.07490 22889 ft 439 kts 297°
2026-05-06 20:00 -2.63938 -61.10212 23203 ft 442 kts 297°
2026-05-06 20:00 -2.62519 -61.12950 23518 ft 445 kts 297°
2026-05-06 20:00 -2.61093 -61.15703 23800 ft 446 kts 297°
2026-05-06 20:01 -2.59663 -61.18461 24111 ft 447 kts 297°
2026-05-06 20:01 -2.58239 -61.21225 24441 ft 448 kts 296°
2026-05-06 20:01 -2.56939 -61.24060 24769 ft 449 kts 293°
2026-05-06 20:01 -2.55738 -61.26942 25053 ft 450 kts 292°
2026-05-06 20:02 -2.54570 -61.29852 25322 ft 451 kts 291°
2026-05-06 20:02 -2.53402 -61.32774 25593 ft 453 kts 292°
2026-05-06 20:02 -2.52225 -61.35695 25861 ft 454 kts 292°
2026-05-06 20:02 -2.51045 -61.38589 26123 ft 455 kts 292°
2026-05-06 20:03 -2.49823 -61.41560 26350 ft 457 kts 292°
2026-05-06 20:03 -2.48617 -61.44475 26440 ft 462 kts 292°